Regional Weather Roundup
Issued by NWS

Home | Current Version | Previous Version | Graphics & Text | Print | Product List | Glossary On
Versions: 1 2 3 4 5 6 7 8 9 10 11 12 13 14 15 16 17 18 19 20 21 22 23 24 25 26 27 28 29 30 31 32 33 34 35 36 37 38 39 40 41 42 43 44 45 46 47 48 49 50
000
ASUS43 KFSD 240310
RWRSD

WEATHER ROUNDUP FOR SOUTH DAKOTA
NATIONAL WEATHER SERVICE SIOUX FALLS SD
1000 PM CDT TUE MAY 23 2017

NOTE: "FAIR" INDICATES FEW OR NO CLOUDS BELOW 12,000 FEET WITH NO
SIGNIFICANT WEATHER AND/OR OBSTRUCTIONS TO VISIBILITY.


SDZ001>005-009-010-012>017-240400-
NORTHWEST AND NORTH CENTRAL SOUTH DAKOTA

CITY           SKY/WX    TMP DP  RH WIND       PRES   REMARKS
BUFFALO          N/A     56  37  49 E9        29.92F
FAITH            N/A     50  37  61 SE8       29.99F
MOBRIDGE       CLEAR     50  38  63 E9        29.96S
$$

SDZ012>016-024>037-041>051-057-063-072>074-240400-
SOUTHWEST AND SOUTH CENTRAL SOUTH DAKOTA

CITY           SKY/WX    TMP DP  RH WIND       PRES   REMARKS
RAPID CTY ARPT CLOUDY    47  35  63 NE8       30.00F
PIERRE         MOCLDY    50  38  63 N6        29.97F
CUSTER         CLOUDY    46  29  51 N5        30.05F
ELLSWORTH AFB  CLOUDY    55  34  45 E6        30.00F
PHILIP         CLEAR     42  36  79 NE5       30.00F
PINE RIDGE     CLEAR     47  38  71 E8        30.01F
SPEARFISH      FAIR      50  39  66 S9        30.02F
WINNER         CLOUDY    52  42  69 N7        29.98S
$$

SDZ004>011-016>023-039-040-240400-
NORTHEAST SOUTH DAKOTA

CITY           SKY/WX    TMP DP  RH WIND       PRES   REMARKS
ABERDEEN       CLEAR     48  40  73 N9        29.95F
WATERTOWN      MOCLDY    48  43  82 N10       29.90S
BROOKINGS      CLOUDY    49  45  86 N12       29.90S
SISSETON         N/A     46  44  93 N9        29.92S
$$

SDZ017-020-022-023-036>040-048>070-240400-
SOUTHEAST SOUTH DAKOTA

CITY           SKY/WX    TMP DP  RH WIND       PRES   REMARKS
SIOUX FALLS    MOCLDY    51  47  86 N13       29.88R
HURON          PTCLDY    47  43  86 N7        29.94S
CHAMBERLAIN    CLOUDY    54  44  70 N7        29.97S
MITCHELL       PTCLDY    50  45  83 N10       29.93F
YANKTON        MOCLDY    51  47  86 NW14      29.90S
$$

ABBREVIATIONS USED IN REMARKS
   TC - TEMPERATURE IN CELSIUS
  WCI - WIND CHILL INDEX
   HX - HEAT INDEX
  VSB - VISIBILITY





USA.gov is the U.S. government's official web portal to all federal, state and local government web resources and services.